Location: ??
(35.3149°N, 139.6204°E)
Time: 10:05:05
(UTC+00:00)

H-2A R/B - Pass Details

Date: 03 August 2024
Orbit: 731 x 832 km, 98.2° (Epoch: 10 September)

Event Time Altitude Azimuth Distance (km) Brightness Sun altitude
Rises 18:59:06 0° 10° (N) 3,166 5.8 -10.6°
Reaches altitude 10° 19:01:22 10° 9° (N) 2,246 5.0 -10.2°
Maximum altitude 19:06:17 77° 284° (WNW) 766 1.9 -9.4°
Drops below altitude 10° 19:11:17 10° 199° (SSW) 2,277 4.0 -8.5°
Sets 19:13:35 0° 198° (SSW) 3,213 4.8 -8.1°
